Tracking 28096 objects as of 29-Sep-2023
HD Live streaming from Space Station
objects crossing your sky now

STARLINK-30215

Track STARLINK-30215 now!
10-day predictions
STARLINK-30215 is classified as:


NORAD ID: 57445
Int'l Code: 2023-105R
Perigee: 562.8 km
Apogee: 564.6 km
Inclination: 43.0 °
Period: 95.8 minutes
Semi major axis: 6934 km
RCS: Unknown
Launch date: July 24, 2023
Source: United States (US)
Launch site: AIR FORCE EASTERN TEST RANGE (AFETR)
Your satellite tracking list
Your tracking list is empty




NASA's NSSDC Master Catalog

Two Line Element Set (TLE):
1 57445U 23105R   23271.83488600  .00005916  00000-0  44290-3 0  9991
2 57445  42.9991  73.0341 0001279 257.2707 102.7992 15.03365986 11095
Source of the keplerian elements: AFSPC